Time,TemperatureF,DewpointF,PressureIn,WindDirection,WindDirectionDegrees,WindSpeedMPH,WindSpeedGustMPH,Humidity,HourlyPrecipIn,Conditions,Clouds,dailyrainin,SoftwareType,DateUTC
2013-01-08 00:02:00,34.0,24.5,30.09,SSE,162,4.0,5.0,68,0.00,,,0.00,Weather View 32 v70,2013-01-08 08:02:00,
2013-01-08 00:07:00,34.0,24.2,30.09,SSE,162,3.0,5.0,67,0.00,,,0.00,Weather View 32 v70,2013-01-08 08:07:00,
2013-01-08 00:12:00,34.7,23.4,30.09,SSE,162,3.0,5.0,63,0.00,,,0.00,Weather View 32 v70,2013-01-08 08:12:00,
2013-01-08 00:17:00,35.1,23.3,30.09,SSE,162,0.0,5.0,62,0.00,,,0.00,Weather View 32 v70,2013-01-08 08:17:00,
2013-01-08 00:22:00,34.9,23.2,30.09,SSE,162,4.0,5.0,62,0.00,,,0.00,Weather View 32 v70,2013-01-08 08:22:00,
2013-01-08 00:27:00,35.1,23.3,30.09,SSE,162,0.0,5.0,62,0.00,,,0.00,Weather View 32 v70,2013-01-08 08:27:00,
2013-01-08 00:32:00,35.1,23.7,30.09,SSE,162,0.0,5.0,63,0.00,,,0.00,Weather View 32 v70,2013-01-08 08:32:00,
2013-01-08 00:37:00,35.2,23.9,30.09,SSE,162,0.0,5.0,63,0.00,,,0.00,Weather View 32 v70,2013-01-08 08:37:00,
2013-01-08 00:42:00,35.4,23.7,30.09,SSE,162,4.0,5.0,62,0.00,,,0.00,Weather View 32 v70,2013-01-08 08:42:00,
2013-01-08 00:47:00,36.0,23.4,30.09,SSE,162,4.0,5.0,60,0.00,,,0.00,Weather View 32 v70,2013-01-08 08:47:00,
2013-01-08 00:52:00,36.1,23.6,30.09,SSE,162,3.0,5.0,60,0.00,,,0.00,Weather View 32 v70,2013-01-08 08:52:00,
2013-01-08 00:57:00,36.1,23.6,30.09,SSE,162,3.0,5.0,60,0.00,,,0.00,Weather View 32 v70,2013-01-08 08:57:00,
2013-01-08 01:02:00,36.0,23.0,30.09,SSE,162,3.0,5.0,59,0.00,,,0.00,Weather View 32 v70,2013-01-08 09:02:00,
2013-01-08 01:04:00,36.1,23.2,30.09,SSE,162,3.0,5.0,59,0.00,,,0.00,Weather View 32 v70,2013-01-08 09:04:00,
2013-01-08 01:09:00,35.8,23.2,30.09,SSE,162,3.0,5.0,60,0.00,,,0.00,Weather View 32 v70,2013-01-08 09:09:00,
2013-01-08 01:14:00,35.8,23.2,30.09,SSE,162,0.0,5.0,60,0.00,,,0.00,Weather View 32 v70,2013-01-08 09:14:00,
2013-01-08 01:19:00,36.3,23.4,30.12,SSE,162,2.0,5.0,59,0.00,,,0.00,Weather View 32 v70,2013-01-08 09:19:00,
2013-01-08 01:24:00,36.3,23.4,30.12,SSE,162,3.0,5.0,59,0.00,,,0.00,Weather View 32 v70,2013-01-08 09:24:00,
2013-01-08 01:29:00,36.3,23.4,30.12,SSE,162,4.0,5.0,59,0.00,,,0.00,Weather View 32 v70,2013-01-08 09:29:00,
2013-01-08 01:34:00,36.5,23.9,30.09,SSE,162,3.0,6.0,60,0.00,,,0.00,Weather View 32 v70,2013-01-08 09:34:00,
2013-01-08 01:39:00,36.9,23.9,30.09,SSE,162,0.0,6.0,59,0.00,,,0.00,Weather View 32 v70,2013-01-08 09:39:00,
2013-01-08 01:44:00,36.9,23.4,30.09,SSE,162,0.0,6.0,58,0.00,,,0.00,Weather View 32 v70,2013-01-08 09:44:00,
2013-01-08 01:49:00,37.0,23.6,30.12,SSE,162,3.0,6.0,58,0.00,,,0.00,Weather View 32 v70,2013-01-08 09:49:00,
2013-01-08 01:54:00,37.4,24.0,30.12,NNW,346,4.0,6.0,58,0.00,,,0.00,Weather View 32 v70,2013-01-08 09:54:00,
2013-01-08 01:59:00,38.3,24.0,30.12,North,0,0.0,6.0,56,0.00,,,0.00,Weather View 32 v70,2013-01-08 09:59:00,
2013-01-08 02:04:00,38.5,23.3,30.12,North,0,0.0,6.0,54,0.00,,,0.00,Weather View 32 v70,2013-01-08 10:04:00,
2013-01-08 02:09:00,38.1,23.4,30.12,North,0,3.0,6.0,55,0.00,,,0.00,Weather View 32 v70,2013-01-08 10:09:00,
2013-01-08 02:14:00,37.9,23.2,30.12,North,0,0.0,6.0,55,0.00,,,0.00,Weather View 32 v70,2013-01-08 10:14:00,
2013-01-08 02:19:00,38.1,23.8,30.12,NNW,332,8.0,8.0,56,0.00,,,0.00,Weather View 32 v70,2013-01-08 10:19:00,
2013-01-08 02:24:00,38.1,23.8,30.12,NW,318,0.0,8.0,56,0.00,,,0.00,Weather View 32 v70,2013-01-08 10:24:00,
2013-01-08 02:29:00,38.3,24.4,30.12,NW,313,4.0,8.0,57,0.00,,,0.00,Weather View 32 v70,2013-01-08 10:29:00,
2013-01-08 02:34:00,38.7,24.7,30.12,WNW,298,3.0,8.0,57,0.00,,,0.00,Weather View 32 v70,2013-01-08 10:34:00,
2013-01-08 02:39:00,38.8,24.9,30.12,West,262,4.0,8.0,57,0.00,,,0.00,Weather View 32 v70,2013-01-08 10:39:00,
2013-01-08 02:44:00,39.2,25.2,30.12,WSW,256,5.0,8.0,57,0.00,,,0.00,Weather View 32 v70,2013-01-08 10:44:00,
2013-01-08 02:49:00,39.4,25.0,30.12,WNW,292,0.0,8.0,56,0.00,,,0.00,Weather View 32 v70,2013-01-08 10:49:00,
2013-01-08 02:54:00,39.4,25.4,30.12,WNW,292,5.0,8.0,57,0.00,,,0.00,Weather View 32 v70,2013-01-08 10:54:00,
2013-01-08 02:59:00,39.4,25.4,30.12,WNW,300,5.0,8.0,57,0.00,,,0.00,Weather View 32 v70,2013-01-08 10:59:00,
2013-01-08 03:04:00,39.6,26.0,30.12,WNW,303,8.0,10.0,58,0.00,,,0.00,Weather View 32 v70,2013-01-08 11:04:00,
2013-01-08 03:09:00,39.6,26.0,30.12,WNW,286,5.0,11.0,58,0.00,,,0.00,Weather View 32 v70,2013-01-08 11:09:00,
2013-01-08 03:14:00,39.6,26.0,30.12,West,265,5.0,11.0,58,0.00,,,0.00,Weather View 32 v70,2013-01-08 11:14:00,
2013-01-08 03:19:00,39.6,26.0,30.09,WNW,283,6.0,11.0,58,0.00,,,0.00,Weather View 32 v70,2013-01-08 11:19:00,
2013-01-08 03:25:00,39.4,25.8,30.09,WNW,294,6.0,13.0,58,0.00,,,0.00,Weather View 32 v70,2013-01-08 11:25:00,
2013-01-08 03:30:00,39.4,26.2,30.09,NW,305,6.0,13.0,59,0.00,,,0.00,Weather View 32 v70,2013-01-08 11:30:00,
2013-01-08 03:35:00,39.4,26.2,30.09,West,275,11.0,19.0,59,0.00,,,0.00,Weather View 32 v70,2013-01-08 11:35:00,
2013-01-08 03:40:00,39.4,26.2,30.09,West,260,6.0,19.0,59,0.00,,,0.00,Weather View 32 v70,2013-01-08 11:40:00,
2013-01-08 03:45:00,39.4,26.6,30.09,NW,305,11.0,19.0,60,0.00,,,0.00,Weather View 32 v70,2013-01-08 11:45:00,
2013-01-08 03:51:00,39.4,26.6,30.09,West,270,8.0,19.0,60,0.00,,,0.00,Weather View 32 v70,2013-01-08 11:51:00,
2013-01-08 03:56:00,39.4,26.6,30.09,WNW,293,6.0,19.0,60,0.00,,,0.00,Weather View 32 v70,2013-01-08 11:56:00,
2013-01-08 04:01:00,39.4,26.6,30.09,WNW,300,10.0,19.0,60,0.00,,,0.00,Weather View 32 v70,2013-01-08 12:01:00,
2013-01-08 04:06:00,39.4,26.6,30.09,WNW,302,8.0,19.0,60,0.00,,,0.00,Weather View 32 v70,2013-01-08 12:06:00,
2013-01-08 04:11:00,39.6,26.8,30.09,West,259,8.0,19.0,60,0.00,,,0.00,Weather View 32 v70,2013-01-08 12:11:00,
2013-01-08 04:16:00,39.6,26.4,30.09,NW,310,9.0,19.0,59,0.00,,,0.00,Weather View 32 v70,2013-01-08 12:16:00,
2013-01-08 04:21:00,39.4,26.2,30.09,West,279,9.0,19.0,59,0.00,,,0.00,Weather View 32 v70,2013-01-08 12:21:00,
2013-01-08 04:26:00,39.4,26.2,30.09,West,268,13.0,19.0,59,0.00,,,0.00,Weather View 32 v70,2013-01-08 12:26:00,
2013-01-08 04:31:00,39.6,26.4,30.09,WNW,286,4.0,19.0,59,0.00,,,0.00,Weather View 32 v70,2013-01-08 12:31:00,
2013-01-08 04:36:00,39.6,26.4,30.09,WNW,292,11.0,15.0,59,0.00,,,0.00,Weather View 32 v70,2013-01-08 12:36:00,
2013-01-08 04:41:00,39.7,26.6,30.09,WNW,288,6.0,15.0,59,0.00,,,0.00,Weather View 32 v70,2013-01-08 12:41:00,
2013-01-08 04:46:00,39.7,26.6,30.09,West,278,9.0,17.0,59,0.00,,,0.00,Weather View 32 v70,2013-01-08 12:46:00,
2013-01-08 04:51:00,39.7,27.0,30.09,WSW,251,13.0,17.0,60,0.00,,,0.00,Weather View 32 v70,2013-01-08 12:51:00,
2013-01-08 04:56:00,39.7,27.0,30.09,NW,311,9.0,17.0,60,0.00,,,0.00,Weather View 32 v70,2013-01-08 12:56:00,
2013-01-08 05:01:00,39.7,27.0,30.09,WNW,302,8.0,17.0,60,0.00,,,0.00,Weather View 32 v70,2013-01-08 13:01:00,
2013-01-08 05:06:00,39.9,27.1,30.09,West,277,6.0,17.0,60,0.00,,,0.00,Weather View 32 v70,2013-01-08 13:06:00,
2013-01-08 05:11:00,39.9,27.1,30.09,WNW,301,8.0,17.0,60,0.00,,,0.00,Weather View 32 v70,2013-01-08 13:11:00,
2013-01-08 05:16:00,39.9,27.1,30.09,WNW,284,10.0,17.0,60,0.00,,,0.00,Weather View 32 v70,2013-01-08 13:16:00,
2013-01-08 05:21:00,40.1,27.3,30.09,West,267,10.0,17.0,60,0.00,,,0.00,Weather View 32 v70,2013-01-08 13:21:00,
2013-01-08 05:26:00,40.3,27.5,30.09,NW,305,6.0,17.0,60,0.00,,,0.00,Weather View 32 v70,2013-01-08 13:26:00,
2013-01-08 05:32:00,40.3,27.5,30.09,WNW,286,11.0,17.0,60,0.00,,,0.00,Weather View 32 v70,2013-01-08 13:32:00,
2013-01-08 05:37:00,40.1,27.3,30.09,WNW,287,7.0,17.0,60,0.00,,,0.00,Weather View 32 v70,2013-01-08 13:37:00,
2013-01-08 05:42:00,40.3,27.9,30.09,WNW,285,6.0,17.0,61,0.00,,,0.00,Weather View 32 v70,2013-01-08 13:42:00,
2013-01-08 05:47:00,40.3,27.9,30.09,West,269,8.0,17.0,61,0.00,,,0.00,Weather View 32 v70,2013-01-08 13:47:00,
2013-01-08 05:52:00,40.3,27.9,30.09,NNW,337,10.0,16.0,61,0.00,,,0.00,Weather View 32 v70,2013-01-08 13:52:00,
2013-01-08 05:57:00,40.5,27.7,30.09,WNW,296,6.0,16.0,60,0.00,,,0.00,Weather View 32 v70,2013-01-08 13:57:00,
2013-01-08 06:02:00,40.5,27.7,30.09,West,281,6.0,16.0,60,0.00,,,0.00,Weather View 32 v70,2013-01-08 14:02:00,
2013-01-08 06:15:00,40.6,28.2,30.06,WSW,252,9.0,16.0,61,0.00,,,0.00,Weather View 32 v70,2013-01-08 14:15:00,
2013-01-08 06:30:00,40.5,28.5,30.09,WNW,288,8.0,15.0,62,0.00,,,0.00,Weather View 32 v70,2013-01-08 14:30:00,
2013-01-08 06:35:00,40.5,28.8,30.09,WSW,253,8.0,15.0,63,0.00,,,0.00,Weather View 32 v70,2013-01-08 14:35:00,
2013-01-08 06:40:00,40.6,29.0,30.09,West,272,6.0,15.0,63,0.00,,,0.00,Weather View 32 v70,2013-01-08 14:40:00,
2013-01-08 06:45:00,40.6,29.0,30.09,WNW,287,8.0,15.0,63,0.00,,,0.00,Weather View 32 v70,2013-01-08 14:45:00,
2013-01-08 06:50:00,40.6,29.0,30.06,WNW,287,4.0,15.0,63,0.00,,,0.00,Weather View 32 v70,2013-01-08 14:50:00,
2013-01-08 06:55:00,40.6,29.0,30.06,NW,315,8.0,15.0,63,0.00,,,0.00,Weather View 32 v70,2013-01-08 14:55:00,
2013-01-08 07:00:00,40.8,29.6,30.06,West,272,6.0,15.0,64,0.00,,,0.00,Weather View 32 v70,2013-01-08 15:00:00,
2013-01-08 07:05:00,40.8,29.2,30.06,NW,312,12.0,15.0,63,0.00,,,0.00,Weather View 32 v70,2013-01-08 15:05:00,
2013-01-08 07:10:00,40.6,29.4,30.06,NW,312,10.0,15.0,64,0.00,,,0.00,Weather View 32 v70,2013-01-08 15:10:00,
2013-01-08 07:15:00,40.6,29.4,30.06,NW,317,13.0,15.0,64,0.00,,,0.00,Weather View 32 v70,2013-01-08 15:15:00,
2013-01-08 07:20:00,40.6,29.8,30.06,WNW,288,7.0,15.0,65,0.00,,,0.00,Weather View 32 v70,2013-01-08 15:20:00,
2013-01-08 07:25:00,41.0,29.7,30.06,WNW,298,6.0,15.0,64,0.00,,,0.00,Weather View 32 v70,2013-01-08 15:25:00,
2013-01-08 07:30:00,41.2,29.9,30.06,NW,317,8.0,16.0,64,0.00,,,0.00,Weather View 32 v70,2013-01-08 15:30:00,
2013-01-08 07:35:00,41.2,29.5,30.06,West,261,8.0,19.0,63,0.00,,,0.00,Weather View 32 v70,2013-01-08 15:35:00,
2013-01-08 07:40:00,41.2,29.5,30.06,WNW,297,10.0,19.0,63,0.00,,,0.00,Weather View 32 v70,2013-01-08 15:40:00,
2013-01-08 07:45:00,41.2,29.5,30.06,WNW,290,6.0,19.0,63,0.00,,,0.00,Weather View 32 v70,2013-01-08 15:45:00,
2013-01-08 07:50:00,41.2,29.5,30.06,WNW,288,13.0,19.0,63,0.00,,,0.00,Weather View 32 v70,2013-01-08 15:50:00,
2013-01-08 07:55:00,41.5,29.9,30.06,West,278,13.0,20.0,63,0.00,,,0.00,Weather View 32 v70,2013-01-08 15:55:00,
2013-01-08 08:00:00,41.7,30.0,30.06,NW,314,10.0,20.0,63,0.00,,,0.00,Weather View 32 v70,2013-01-08 16:00:00,
2013-01-08 08:05:00,41.9,29.8,30.09,WNW,287,13.0,20.0,62,0.00,,,0.00,Weather View 32 v70,2013-01-08 16:05:00,
2013-01-08 08:10:00,42.1,30.0,30.09,West,271,17.0,20.0,62,0.00,,,0.00,Weather View 32 v70,2013-01-08 16:10:00,
2013-01-08 08:15:00,42.3,29.8,30.09,NW,304,11.0,20.0,61,0.00,,,0.00,Weather View 32 v70,2013-01-08 16:15:00,
2013-01-08 08:20:00,42.4,29.9,30.09,West,264,10.0,20.0,61,0.00,,,0.00,Weather View 32 v70,2013-01-08 16:20:00,
2013-01-08 08:25:00,42.6,29.7,30.09,West,269,8.0,20.0,60,0.00,,,0.00,Weather View 32 v70,2013-01-08 16:25:00,
2013-01-08 08:30:00,42.8,29.4,30.09,West,270,15.0,20.0,59,0.00,,,0.00,Weather View 32 v70,2013-01-08 16:30:00,
2013-01-08 08:35:00,43.2,29.8,30.09,NW,308,13.0,21.0,59,0.00,,,0.00,Weather View 32 v70,2013-01-08 16:35:00,
2013-01-08 08:40:00,43.5,29.7,30.09,NW,318,11.0,21.0,58,0.00,,,0.00,Weather View 32 v70,2013-01-08 16:40:00,
2013-01-08 08:45:00,43.7,29.4,30.09,WNW,300,9.0,21.0,57,0.00,,,0.00,Weather View 32 v70,2013-01-08 16:45:00,
2013-01-08 08:50:00,43.9,29.2,30.09,NW,311,9.0,21.0,56,0.00,,,0.00,Weather View 32 v70,2013-01-08 16:50:00,
2013-01-08 08:56:00,43.9,29.6,30.09,WNW,294,10.0,21.0,57,0.00,,,0.00,Weather View 32 v70,2013-01-08 16:56:00,
2013-01-08 09:01:00,43.9,29.6,30.09,NNW,334,14.0,21.0,57,0.00,,,0.00,Weather View 32 v70,2013-01-08 17:01:00,
2013-01-08 09:06:00,44.1,29.8,30.09,NW,320,12.0,23.0,57,0.00,,,0.00,Weather View 32 v70,2013-01-08 17:06:00,
2013-01-08 09:11:00,44.1,29.8,30.09,WNW,290,11.0,23.0,57,0.00,,,0.00,Weather View 32 v70,2013-01-08 17:11:00,
2013-01-08 09:16:00,44.2,29.9,30.09,NW,304,11.0,23.0,57,0.00,,,0.00,Weather View 32 v70,2013-01-08 17:16:00,
2013-01-08 09:21:00,44.4,30.1,30.09,NW,315,13.0,23.0,57,0.00,,,0.00,Weather View 32 v70,2013-01-08 17:21:00,
2013-01-08 09:26:00,44.6,29.9,30.09,NW,312,11.0,23.0,56,0.00,,,0.00,Weather View 32 v70,2013-01-08 17:26:00,
2013-01-08 09:31:00,45.0,30.2,30.09,WNW,295,12.0,23.0,56,0.00,,,0.00,Weather View 32 v70,2013-01-08 17:31:00,
2013-01-08 09:36:00,45.0,29.7,30.09,NNW,340,13.0,23.0,55,0.00,,,0.00,Weather View 32 v70,2013-01-08 17:36:00,
2013-01-08 09:41:00,45.1,29.9,30.09,West,279,10.0,23.0,55,0.00,,,0.00,Weather View 32 v70,2013-01-08 17:41:00,
2013-01-08 09:46:00,45.3,30.1,30.09,West,266,17.0,23.0,55,0.00,,,0.00,Weather View 32 v70,2013-01-08 17:46:00,
2013-01-08 09:51:00,45.9,30.1,30.09,WNW,291,11.0,25.0,54,0.00,,,0.00,Weather View 32 v70,2013-01-08 17:51:00,
2013-01-08 09:56:00,46.0,29.8,30.09,NW,306,13.0,25.0,53,0.00,,,0.00,Weather View 32 v70,2013-01-08 17:56:00,
2013-01-08 10:01:00,46.2,30.0,30.12,NNW,334,15.0,25.0,53,0.00,,,0.00,Weather View 32 v70,2013-01-08 18:01:00,
2013-01-08 10:06:00,46.2,30.0,30.12,WNW,302,18.0,25.0,53,0.00,,,0.00,Weather View 32 v70,2013-01-08 18:06:00,
2013-01-08 10:11:00,46.2,29.5,30.12,NW,320,9.0,25.0,52,0.00,,,0.00,Weather View 32 v70,2013-01-08 18:11:00,
2013-01-08 10:16:00,46.2,29.5,30.09,NW,324,15.0,25.0,52,0.00,,,0.00,Weather View 32 v70,2013-01-08 18:16:00,
2013-01-08 10:21:00,46.0,29.4,30.09,WNW,291,17.0,25.0,52,0.00,,,0.00,Weather View 32 v70,2013-01-08 18:21:00,
2013-01-08 10:26:00,46.0,29.4,30.09,NW,326,16.0,25.0,52,0.00,,,0.00,Weather View 32 v70,2013-01-08 18:26:00,
2013-01-08 10:31:00,46.0,29.4,30.12,NW,314,13.0,25.0,52,0.00,,,0.00,Weather View 32 v70,2013-01-08 18:31:00,
2013-01-08 10:36:00,46.4,29.2,30.12,WNW,291,12.0,26.0,51,0.00,,,0.00,Weather View 32 v70,2013-01-08 18:36:00,
2013-01-08 10:41:00,46.6,29.4,30.12,WNW,294,15.0,26.0,51,0.00,,,0.00,Weather View 32 v70,2013-01-08 18:41:00,
2013-01-08 10:46:00,46.4,29.7,30.12,NW,312,8.0,29.0,52,0.00,,,0.00,Weather View 32 v70,2013-01-08 18:46:00,
2013-01-08 10:51:00,46.6,29.4,30.12,WNW,297,8.0,29.0,51,0.00,,,0.00,Weather View 32 v70,2013-01-08 18:51:00,
2013-01-08 10:56:00,46.6,29.9,30.12,West,265,18.0,29.0,52,0.00,,,0.00,Weather View 32 v70,2013-01-08 18:56:00,
2013-01-08 11:00:00,46.4,29.2,30.09,West,280,13.0,29.0,51,0.00,,,0.00,Weather View 32 v70,2013-01-08 19:00:00,
2013-01-08 11:01:00,46.4,29.2,30.09,NW,313,12.0,29.0,51,0.00,,,0.00,Weather View 32 v70,2013-01-08 19:01:00,
2013-01-08 11:06:00,46.4,29.7,30.09,NW,317,11.0,29.0,52,0.00,,,0.00,Weather View 32 v70,2013-01-08 19:06:00,
2013-01-08 11:11:00,46.2,30.0,30.09,WNW,287,11.0,29.0,53,0.00,,,0.00,Weather View 32 v70,2013-01-08 19:11:00,
2013-01-08 11:16:00,46.2,30.0,30.09,WNW,299,13.0,29.0,53,0.00,,,0.00,Weather View 32 v70,2013-01-08 19:16:00,
2013-01-08 11:22:00,46.2,30.0,30.09,NW,305,11.0,29.0,53,0.00,,,0.00,Weather View 32 v70,2013-01-08 19:22:00,
2013-01-08 11:27:00,46.2,30.5,30.09,North,3,13.0,29.0,54,0.00,,,0.00,Weather View 32 v70,2013-01-08 19:27:00,
2013-01-08 11:32:00,46.0,29.8,30.09,NNW,338,15.0,29.0,53,0.00,,,0.00,Weather View 32 v70,2013-01-08 19:32:00,
2013-01-08 11:37:00,46.4,29.7,30.09,WNW,287,13.0,29.0,52,0.00,,,0.00,Weather View 32 v70,2013-01-08 19:37:00,
2013-01-08 11:42:00,46.9,29.7,30.09,WNW,295,19.0,29.0,51,0.00,,,0.00,Weather View 32 v70,2013-01-08 19:42:00,
2013-01-08 11:47:00,47.1,29.9,30.09,NW,307,13.0,25.0,51,0.00,,,0.00,Weather View 32 v70,2013-01-08 19:47:00,
2013-01-08 11:52:00,47.3,29.6,30.09,WNW,286,10.0,25.0,50,0.00,,,0.00,Weather View 32 v70,2013-01-08 19:52:00,
2013-01-08 11:57:00,47.8,29.6,30.09,WNW,303,11.0,25.0,49,0.00,,,0.00,Weather View 32 v70,2013-01-08 19:57:00,
2013-01-08 12:00:00,47.8,29.6,30.09,West,265,10.0,22.0,49,0.00,,,0.00,Weather View 32 v70,2013-01-08 20:00:00,
2013-01-08 12:02:00,47.8,29.6,30.09,NW,316,14.0,22.0,49,0.00,,,0.00,Weather View 32 v70,2013-01-08 20:02:00,
2013-01-08 12:07:00,48.0,29.7,30.09,WSW,245,8.0,22.0,49,0.00,,,0.00,Weather View 32 v70,2013-01-08 20:07:00,
2013-01-08 12:12:00,48.0,29.2,30.09,NW,307,10.0,22.0,48,0.00,,,0.00,Weather View 32 v70,2013-01-08 20:12:00,
2013-01-08 12:17:00,47.7,29.4,30.09,WNW,302,8.0,21.0,49,0.00,,,0.00,Weather View 32 v70,2013-01-08 20:17:00,
2013-01-08 12:22:00,47.5,29.2,30.09,West,266,8.0,21.0,49,0.00,,,0.00,Weather View 32 v70,2013-01-08 20:22:00,
2013-01-08 12:27:00,47.3,29.1,30.09,NW,312,8.0,21.0,49,0.00,,,0.00,Weather View 32 v70,2013-01-08 20:27:00,
2013-01-08 12:32:00,47.5,29.2,30.09,NW,311,11.0,21.0,49,0.00,,,0.00,Weather View 32 v70,2013-01-08 20:32:00,
2013-01-08 12:37:00,47.8,29.1,30.09,NW,324,13.0,21.0,48,0.00,,,0.00,Weather View 32 v70,2013-01-08 20:37:00,
2013-01-08 12:42:00,48.0,29.2,30.09,NW,315,8.0,21.0,48,0.00,,,0.00,Weather View 32 v70,2013-01-08 20:42:00,
2013-01-08 12:47:00,48.0,29.2,30.06,NW,318,15.0,21.0,48,0.00,,,0.00,Weather View 32 v70,2013-01-08 20:47:00,
2013-01-08 12:52:00,48.0,29.2,30.06,West,270,19.0,21.0,48,0.00,,,0.00,Weather View 32 v70,2013-01-08 20:52:00,
2013-01-08 12:57:00,48.2,28.9,30.06,NNW,333,13.0,21.0,47,0.00,,,0.00,Weather View 32 v70,2013-01-08 20:57:00,
2013-01-08 13:00:00,48.4,29.6,30.06,NNW,332,9.0,21.0,48,0.00,,,0.00,Weather View 32 v70,2013-01-08 21:00:00,
2013-01-08 13:02:00,48.4,29.6,30.06,West,281,9.0,21.0,48,0.00,,,0.00,Weather View 32 v70,2013-01-08 21:02:00,
2013-01-08 13:07:00,48.7,29.4,30.06,NW,326,17.0,21.0,47,0.00,,,0.00,Weather View 32 v70,2013-01-08 21:07:00,
2013-01-08 13:12:00,49.1,29.7,30.06,NNW,331,6.0,21.0,47,0.00,,,0.00,Weather View 32 v70,2013-01-08 21:12:00,
2013-01-08 13:17:00,49.5,30.0,30.06,WNW,287,10.0,21.0,47,0.00,,,0.00,Weather View 32 v70,2013-01-08 21:17:00,
2013-01-08 13:22:00,49.6,29.7,30.06,NNW,345,15.0,21.0,46,0.00,,,0.00,Weather View 32 v70,2013-01-08 21:22:00,
2013-01-08 13:27:00,50.0,29.5,30.06,NW,322,17.0,21.0,45,0.00,,,0.00,Weather View 32 v70,2013-01-08 21:27:00,
2013-01-08 13:32:00,50.2,29.6,30.06,North,3,8.0,21.0,45,0.00,,,0.00,Weather View 32 v70,2013-01-08 21:32:00,
2013-01-08 13:37:00,50.4,29.2,30.06,North,5,8.0,21.0,44,0.00,,,0.00,Weather View 32 v70,2013-01-08 21:37:00,
2013-01-08 13:42:00,50.5,29.4,30.06,NNW,331,5.0,21.0,44,0.00,,,0.00,Weather View 32 v70,2013-01-08 21:42:00,
2013-01-08 13:47:00,50.5,28.8,30.06,NNW,342,8.0,21.0,43,0.00,,,0.00,Weather View 32 v70,2013-01-08 21:47:00,
2013-01-08 13:52:00,50.5,28.8,30.06,North,350,11.0,21.0,43,0.00,,,0.00,Weather View 32 v70,2013-01-08 21:52:00,
2013-01-08 13:57:00,50.4,28.7,30.06,North,353,11.0,20.0,43,0.00,,,0.00,Weather View 32 v70,2013-01-08 21:57:00,
2013-01-08 14:00:00,50.4,28.7,30.06,NNW,328,13.0,20.0,43,0.00,,,0.00,Weather View 32 v70,2013-01-08 22:00:00,
2013-01-08 14:02:00,50.4,28.7,30.06,North,357,8.0,20.0,43,0.00,,,0.00,Weather View 32 v70,2013-01-08 22:02:00,
2013-01-08 14:08:00,50.2,28.5,30.06,North,7,15.0,20.0,43,0.00,,,0.00,Weather View 32 v70,2013-01-08 22:08:00,
2013-01-08 14:13:00,50.2,28.5,30.06,WNW,297,8.0,20.0,43,0.00,,,0.00,Weather View 32 v70,2013-01-08 22:13:00,
2013-01-08 14:18:00,50.2,29.1,30.06,NW,304,15.0,19.0,44,0.00,,,0.00,Weather View 32 v70,2013-01-08 22:18:00,
2013-01-08 14:23:00,50.0,28.9,30.06,NNW,339,18.0,19.0,44,0.00,,,0.00,Weather View 32 v70,2013-01-08 22:23:00,
2013-01-08 14:28:00,50.0,28.3,30.06,NNW,338,6.0,19.0,43,0.00,,,0.00,Weather View 32 v70,2013-01-08 22:28:00,
2013-01-08 14:33:00,50.0,28.9,30.06,NNW,341,13.0,19.0,44,0.00,,,0.00,Weather View 32 v70,2013-01-08 22:33:00,
2013-01-08 14:38:00,50.0,28.3,30.06,NW,315,15.0,19.0,43,0.00,,,0.00,Weather View 32 v70,2013-01-08 22:38:00,
2013-01-08 14:43:00,50.0,28.3,30.06,North,0,12.0,19.0,43,0.00,,,0.00,Weather View 32 v70,2013-01-08 22:43:00,
2013-01-08 14:48:00,49.8,28.2,30.06,NNE,18,9.0,19.0,43,0.00,,,0.00,Weather View 32 v70,2013-01-08 22:48:00,
2013-01-08 14:53:00,49.8,28.2,30.06,NW,309,8.0,19.0,43,0.00,,,0.00,Weather View 32 v70,2013-01-08 22:53:00,
2013-01-08 14:58:00,49.6,28.0,30.06,NW,324,9.0,19.0,43,0.00,,,0.00,Weather View 32 v70,2013-01-08 22:58:00,
2013-01-08 15:00:00,49.6,28.0,30.06,North,0,16.0,19.0,43,0.00,,,0.00,Weather View 32 v70,2013-01-08 23:00:00,
2013-01-08 15:03:00,49.5,28.4,30.06,NNW,345,6.0,19.0,44,0.00,,,0.00,Weather View 32 v70,2013-01-08 23:03:00,
2013-01-08 15:08:00,49.3,27.7,30.06,North,2,11.0,19.0,43,0.00,,,0.00,Weather View 32 v70,2013-01-08 23:08:00,
2013-01-08 15:13:00,49.1,28.1,30.06,NNW,335,10.0,18.0,44,0.00,,,0.00,Weather View 32 v70,2013-01-08 23:13:00,
2013-01-08 15:18:00,48.9,27.4,30.06,NW,320,10.0,18.0,43,0.00,,,0.00,Weather View 32 v70,2013-01-08 23:18:00,
2013-01-08 15:23:00,48.9,27.4,30.06,West,274,8.0,18.0,43,0.00,,,0.00,Weather View 32 v70,2013-01-08 23:23:00,
2013-01-08 15:28:00,48.7,27.8,30.06,NW,313,8.0,18.0,44,0.00,,,0.00,Weather View 32 v70,2013-01-08 23:28:00,
2013-01-08 15:33:00,48.6,27.6,30.06,NW,310,9.0,18.0,44,0.00,,,0.00,Weather View 32 v70,2013-01-08 23:33:00,
2013-01-08 15:39:00,48.2,27.8,30.06,WNW,295,16.0,18.0,45,0.00,,,0.00,Weather View 32 v70,2013-01-08 23:39:00,
2013-01-08 15:44:00,48.0,27.7,30.06,NW,304,8.0,18.0,45,0.00,,,0.00,Weather View 32 v70,2013-01-08 23:44:00,
2013-01-08 15:49:00,47.8,27.5,30.06,NW,316,9.0,18.0,45,0.00,,,0.00,Weather View 32 v70,2013-01-08 23:49:00,
2013-01-08 15:54:00,47.7,27.9,30.06,WNW,298,11.0,18.0,46,0.00,,,0.00,Weather View 32 v70,2013-01-08 23:54:00,
2013-01-08 15:59:00,47.5,27.7,30.06,NW,321,8.0,18.0,46,0.00,,,0.00,Weather View 32 v70,2013-01-08 23:59:00,
2013-01-08 16:00:00,47.3,27.5,30.06,NW,312,6.0,18.0,46,0.00,,,0.00,Weather View 32 v70,2013-01-09 00:00:00,
2013-01-08 16:04:00,47.3,28.1,30.06,NNW,337,13.0,18.0,47,0.00,,,0.00,Weather View 32 v70,2013-01-09 00:04:00,
2013-01-08 16:09:00,47.1,27.9,30.06,WNW,290,10.0,18.0,47,0.00,,,0.00,Weather View 32 v70,2013-01-09 00:09:00,
2013-01-08 16:14:00,46.8,27.6,30.06,West,273,4.0,18.0,47,0.00,,,0.00,Weather View 32 v70,2013-01-09 00:14:00,
2013-01-08 16:19:00,46.6,27.4,30.06,WNW,294,12.0,18.0,47,0.00,,,0.00,Weather View 32 v70,2013-01-09 00:19:00,
2013-01-08 16:24:00,46.4,27.7,30.06,WNW,301,6.0,17.0,48,0.00,,,0.00,Weather View 32 v70,2013-01-09 00:24:00,
2013-01-08 16:29:00,46.2,27.6,30.06,NW,318,8.0,17.0,48,0.00,,,0.00,Weather View 32 v70,2013-01-09 00:29:00,
2013-01-08 16:34:00,46.2,27.6,30.06,North,349,10.0,17.0,48,0.00,,,0.00,Weather View 32 v70,2013-01-09 00:34:00,
2013-01-08 16:39:00,46.0,27.4,30.06,West,259,4.0,20.0,48,0.00,,,0.00,Weather View 32 v70,2013-01-09 00:39:00,
2013-01-08 16:44:00,45.7,27.6,30.06,WNW,290,4.0,20.0,49,0.00,,,0.00,Weather View 32 v70,2013-01-09 00:44:00,
2013-01-08 16:49:00,45.5,27.4,30.03,NW,311,8.0,20.0,49,0.00,,,0.00,Weather View 32 v70,2013-01-09 00:49:00,
2013-01-08 16:54:00,45.7,27.6,30.03,WNW,289,14.0,20.0,49,0.00,,,0.00,Weather View 32 v70,2013-01-09 00:54:00,
2013-01-08 16:59:00,46.0,27.9,30.03,NW,313,6.0,20.0,49,0.00,,,0.00,Weather View 32 v70,2013-01-09 00:59:00,
2013-01-08 17:00:00,46.0,27.9,30.03,West,281,9.0,20.0,49,0.00,,,0.00,Weather View 32 v70,2013-01-09 01:00:00,
2013-01-08 17:04:00,45.9,27.8,30.03,NW,304,14.0,20.0,49,0.00,,,0.00,Weather View 32 v70,2013-01-09 01:04:00,
2013-01-08 17:09:00,45.9,27.8,30.03,NNW,341,11.0,20.0,49,0.00,,,0.00,Weather View 32 v70,2013-01-09 01:09:00,
2013-01-08 17:14:00,45.9,27.8,30.03,WNW,291,13.0,20.0,49,0.00,,,0.00,Weather View 32 v70,2013-01-09 01:14:00,
2013-01-08 17:19:00,45.9,27.8,30.03,NNW,339,8.0,20.0,49,0.00,,,0.00,Weather View 32 v70,2013-01-09 01:19:00,
2013-01-08 17:24:00,45.7,27.6,30.03,West,270,8.0,20.0,49,0.00,,,0.00,Weather View 32 v70,2013-01-09 01:24:00,
2013-01-08 17:29:00,45.7,27.6,30.03,WNW,299,11.0,20.0,49,0.00,,,0.00,Weather View 32 v70,2013-01-09 01:29:00,
2013-01-08 17:34:00,45.5,27.4,30.03,WNW,290,8.0,20.0,49,0.00,,,0.00,Weather View 32 v70,2013-01-09 01:34:00,
2013-01-08 17:40:00,45.5,27.4,30.03,WNW,302,6.0,20.0,49,0.00,,,0.00,Weather View 32 v70,2013-01-09 01:40:00,
2013-01-08 17:45:00,45.3,27.3,30.03,NW,313,10.0,20.0,49,0.00,,,0.00,Weather View 32 v70,2013-01-09 01:45:00,
2013-01-08 17:50:00,45.3,27.3,30.03,WNW,298,6.0,20.0,49,0.00,,,0.00,Weather View 32 v70,2013-01-09 01:50:00,
2013-01-08 17:55:00,45.5,27.4,30.03,West,264,8.0,20.0,49,0.00,,,0.00,Weather View 32 v70,2013-01-09 01:55:00,
2013-01-08 18:00:00,45.3,27.3,30.03,WNW,299,13.0,20.0,49,0.00,,,0.00,Weather View 32 v70,2013-01-09 02:00:00,
2013-01-08 18:05:00,45.5,27.4,30.03,WNW,290,13.0,20.0,49,0.00,,,0.00,Weather View 32 v70,2013-01-09 02:05:00,
2013-01-08 18:10:00,45.3,27.3,30.03,WNW,289,11.0,18.0,49,0.00,,,0.00,Weather View 32 v70,2013-01-09 02:10:00,
2013-01-08 18:15:00,45.1,27.1,30.03,NW,304,8.0,18.0,49,0.00,,,0.00,Weather View 32 v70,2013-01-09 02:15:00,
2013-01-08 18:20:00,44.8,26.8,30.03,NW,305,13.0,18.0,49,0.00,,,0.00,Weather View 32 v70,2013-01-09 02:20:00,
2013-01-08 18:25:00,44.6,27.1,30.03,West,259,8.0,18.0,50,0.00,,,0.00,Weather View 32 v70,2013-01-09 02:25:00,
2013-01-08 18:30:00,44.4,26.9,30.03,West,259,6.0,18.0,50,0.00,,,0.00,Weather View 32 v70,2013-01-09 02:30:00,
2013-01-08 18:35:00,44.2,26.7,30.00,WSW,257,8.0,18.0,50,0.00,,,0.00,Weather View 32 v70,2013-01-09 02:35:00,
2013-01-08 18:40:00,43.7,26.7,30.00,West,270,8.0,18.0,51,0.00,,,0.00,Weather View 32 v70,2013-01-09 02:40:00,
2013-01-08 18:45:00,44.4,27.4,30.00,WNW,303,11.0,18.0,51,0.00,,,0.00,Weather View 32 v70,2013-01-09 02:45:00,
2013-01-08 18:50:00,44.8,27.2,30.00,West,271,15.0,17.0,50,0.00,,,0.00,Weather View 32 v70,2013-01-09 02:50:00,
2013-01-08 18:55:00,44.8,27.2,30.00,WNW,300,13.0,17.0,50,0.00,,,0.00,Weather View 32 v70,2013-01-09 02:55:00,
2013-01-08 19:00:00,45.1,27.1,30.00,WNW,302,13.0,17.0,49,0.00,,,0.00,Weather View 32 v70,2013-01-09 03:00:00,
2013-01-08 19:05:00,45.1,27.1,30.00,NW,313,11.0,18.0,49,0.00,,,0.00,Weather View 32 v70,2013-01-09 03:05:00,
2013-01-08 19:10:00,44.6,26.6,30.00,West,280,10.0,25.0,49,0.00,,,0.00,Weather View 32 v70,2013-01-09 03:10:00,
2013-01-08 19:15:00,44.4,26.9,30.00,West,270,8.0,25.0,50,0.00,,,0.00,Weather View 32 v70,2013-01-09 03:15:00,
2013-01-08 19:20:00,44.2,26.7,30.00,WNW,283,8.0,25.0,50,0.00,,,0.00,Weather View 32 v70,2013-01-09 03:20:00,
2013-01-08 19:25:00,43.9,26.9,30.00,NNW,333,6.0,25.0,51,0.00,,,0.00,Weather View 32 v70,2013-01-09 03:25:00,
2013-01-08 19:30:00,43.5,26.6,30.00,West,272,6.0,25.0,51,0.00,,,0.00,Weather View 32 v70,2013-01-09 03:30:00,
2013-01-08 19:35:00,43.5,26.6,30.00,West,267,6.0,25.0,51,0.00,,,0.00,Weather View 32 v70,2013-01-09 03:35:00,
2013-01-08 19:40:00,43.3,26.4,30.00,West,266,8.0,25.0,51,0.00,,,0.00,Weather View 32 v70,2013-01-09 03:40:00,
2013-01-08 19:45:00,43.3,26.4,30.00,WSW,256,8.0,25.0,51,0.00,,,0.00,Weather View 32 v70,2013-01-09 03:45:00,
2013-01-08 19:50:00,43.3,26.4,30.00,WNW,300,10.0,25.0,51,0.00,,,0.00,Weather View 32 v70,2013-01-09 03:50:00,
2013-01-08 19:55:00,43.2,26.2,30.00,WNW,285,10.0,25.0,51,0.00,,,0.00,Weather View 32 v70,2013-01-09 03:55:00,
2013-01-08 20:01:00,43.0,26.1,30.00,WNW,293,11.0,25.0,51,0.00,,,0.00,Weather View 32 v70,2013-01-09 04:01:00,
2013-01-08 20:06:00,43.0,26.5,30.00,WNW,292,11.0,16.0,52,0.00,,,0.00,Weather View 32 v70,2013-01-09 04:06:00,
2013-01-08 20:11:00,42.6,26.2,30.00,West,279,4.0,15.0,52,0.00,,,0.00,Weather View 32 v70,2013-01-09 04:11:00,
2013-01-08 20:16:00,42.3,26.3,30.00,West,279,6.0,15.0,53,0.00,,,0.00,Weather View 32 v70,2013-01-09 04:16:00,
2013-01-08 20:21:00,42.3,26.3,30.00,NW,304,8.0,15.0,53,0.00,,,0.00,Weather View 32 v70,2013-01-09 04:21:00,
2013-01-08 20:26:00,42.1,26.2,30.00,NW,306,8.0,15.0,53,0.00,,,0.00,Weather View 32 v70,2013-01-09 04:26:00,
2013-01-08 20:31:00,41.7,25.8,30.00,WNW,297,6.0,15.0,53,0.00,,,0.00,Weather View 32 v70,2013-01-09 04:31:00,
2013-01-08 20:36:00,41.5,26.1,30.00,West,266,6.0,15.0,54,0.00,,,0.00,Weather View 32 v70,2013-01-09 04:36:00,
2013-01-08 20:41:00,41.7,26.3,30.00,WNW,292,3.0,15.0,54,0.00,,,0.00,Weather View 32 v70,2013-01-09 04:41:00,
2013-01-08 20:46:00,41.9,26.4,30.00,West,261,8.0,15.0,54,0.00,,,0.00,Weather View 32 v70,2013-01-09 04:46:00,
2013-01-08 20:51:00,42.3,26.3,30.00,NW,304,9.0,15.0,53,0.00,,,0.00,Weather View 32 v70,2013-01-09 04:51:00,
2013-01-08 20:56:00,42.4,26.5,30.00,WNW,287,8.0,16.0,53,0.00,,,0.00,Weather View 32 v70,2013-01-09 04:56:00,
2013-01-08 21:00:00,42.6,26.2,30.00,WSW,251,5.0,16.0,52,0.00,,,0.00,Weather View 32 v70,2013-01-09 05:00:00,
2013-01-08 21:01:00,42.8,26.4,30.00,West,272,8.0,16.0,52,0.00,,,0.00,Weather View 32 v70,2013-01-09 05:01:00,
2013-01-08 21:02:00,42.8,26.4,30.00,West,275,8.0,16.0,52,0.00,,,0.00,Weather View 32 v70,2013-01-09 05:02:00,
2013-01-08 21:07:00,42.8,26.4,30.00,West,275,5.0,16.0,52,0.00,,,0.00,Weather View 32 v70,2013-01-09 05:07:00,
2013-01-08 21:12:00,42.8,25.9,30.00,WNW,293,8.0,16.0,51,0.00,,,0.00,Weather View 32 v70,2013-01-09 05:12:00,
2013-01-08 21:17:00,42.8,25.9,30.00,West,274,10.0,16.0,51,0.00,,,0.00,Weather View 32 v70,2013-01-09 05:17:00,
2013-01-08 21:22:00,42.8,25.9,30.00,WSW,252,11.0,16.0,51,0.00,,,0.00,Weather View 32 v70,2013-01-09 05:22:00,
2013-01-08 21:27:00,42.8,25.9,30.00,WSW,258,5.0,16.0,51,0.00,,,0.00,Weather View 32 v70,2013-01-09 05:27:00,
2013-01-08 21:32:00,42.6,26.2,30.00,WNW,292,6.0,16.0,52,0.00,,,0.00,Weather View 32 v70,2013-01-09 05:32:00,
2013-01-08 21:38:00,42.4,26.0,30.00,WNW,297,9.0,16.0,52,0.00,,,0.00,Weather View 32 v70,2013-01-09 05:38:00,
2013-01-08 21:43:00,42.4,26.0,30.00,WSW,245,4.0,16.0,52,0.00,,,0.00,Weather View 32 v70,2013-01-09 05:43:00,
2013-01-08 21:48:00,42.4,26.0,30.00,West,276,15.0,16.0,52,0.00,,,0.00,Weather View 32 v70,2013-01-09 05:48:00,
2013-01-08 21:53:00,42.8,25.9,30.00,West,263,13.0,16.0,51,0.00,,,0.00,Weather View 32 v70,2013-01-09 05:53:00,
2013-01-08 21:58:00,43.0,26.1,30.00,WNW,302,8.0,15.0,51,0.00,,,0.00,Weather View 32 v70,2013-01-09 05:58:00,
2013-01-08 22:03:00,43.2,26.2,29.97,West,276,8.0,15.0,51,0.00,,,0.00,Weather View 32 v70,2013-01-09 06:03:00,
2013-01-08 22:08:00,43.2,25.8,29.97,NW,316,12.0,15.0,50,0.00,,,0.00,Weather View 32 v70,2013-01-09 06:08:00,
2013-01-08 22:13:00,43.0,26.1,29.97,West,280,10.0,15.0,51,0.00,,,0.00,Weather View 32 v70,2013-01-09 06:13:00,
2013-01-08 22:18:00,42.6,25.7,29.97,West,275,10.0,15.0,51,0.00,,,0.00,Weather View 32 v70,2013-01-09 06:18:00,
2013-01-08 22:23:00,42.4,26.0,29.97,WNW,298,6.0,15.0,52,0.00,,,0.00,Weather View 32 v70,2013-01-09 06:23:00,
2013-01-08 22:28:00,42.4,26.0,29.97,West,271,6.0,15.0,52,0.00,,,0.00,Weather View 32 v70,2013-01-09 06:28:00,
2013-01-08 22:33:00,42.3,25.9,29.97,NW,306,9.0,15.0,52,0.00,,,0.00,Weather View 32 v70,2013-01-09 06:33:00,
2013-01-08 22:38:00,42.1,25.7,29.97,West,273,5.0,15.0,52,0.00,,,0.00,Weather View 32 v70,2013-01-09 06:38:00,
2013-01-08 22:43:00,41.5,25.7,29.97,WNW,297,8.0,15.0,53,0.00,,,0.00,Weather View 32 v70,2013-01-09 06:43:00,
2013-01-08 22:48:00,41.2,25.3,30.00,West,277,6.0,15.0,53,0.00,,,0.00,Weather View 32 v70,2013-01-09 06:48:00,
2013-01-08 22:53:00,41.0,25.6,30.00,NW,304,8.0,15.0,54,0.00,,,0.00,Weather View 32 v70,2013-01-09 06:53:00,
2013-01-08 22:58:00,40.8,25.9,30.00,NW,319,5.0,15.0,55,0.00,,,0.00,Weather View 32 v70,2013-01-09 06:58:00,
2013-01-08 23:03:00,41.0,26.0,29.97,West,280,10.0,13.0,55,0.00,,,0.00,Weather View 32 v70,2013-01-09 07:03:00,
2013-01-08 23:08:00,41.2,25.8,29.97,West,279,12.0,13.0,54,0.00,,,0.00,Weather View 32 v70,2013-01-09 07:08:00,
2013-01-08 23:13:00,41.2,25.8,29.97,WNW,294,8.0,13.0,54,0.00,,,0.00,Weather View 32 v70,2013-01-09 07:13:00,
2013-01-08 23:18:00,41.0,25.6,29.97,West,271,11.0,13.0,54,0.00,,,0.00,Weather View 32 v70,2013-01-09 07:18:00,
2013-01-08 23:23:00,41.0,25.6,29.97,West,271,6.0,13.0,54,0.00,,,0.00,Weather View 32 v70,2013-01-09 07:23:00,
2013-01-08 23:28:00,40.8,25.9,29.97,West,280,13.0,13.0,55,0.00,,,0.00,Weather View 32 v70,2013-01-09 07:28:00,
2013-01-08 23:33:00,40.8,25.9,29.97,West,278,5.0,13.0,55,0.00,,,0.00,Weather View 32 v70,2013-01-09 07:33:00,
2013-01-08 23:38:00,40.5,25.5,29.97,NW,305,4.0,13.0,55,0.00,,,0.00,Weather View 32 v70,2013-01-09 07:38:00,
2013-01-08 23:43:00,39.9,25.0,29.97,WNW,299,4.0,13.0,55,0.00,,,0.00,Weather View 32 v70,2013-01-09 07:43:00,
2013-01-08 23:48:00,39.6,25.1,29.97,NW,319,4.0,13.0,56,0.00,,,0.00,Weather View 32 v70,2013-01-09 07:48:00,
2013-01-08 23:53:00,39.2,25.2,29.97,WNW,300,5.0,13.0,57,0.00,,,0.00,Weather View 32 v70,2013-01-09 07:53:00,
2013-01-08 23:58:00,39.0,25.5,29.97,NW,313,6.0,13.0,58,0.00,,,0.00,Weather View 32 v70,2013-01-09 07:58:00,